Overview Statistics Trail Chart Weather Telemetry Raw packets
 

This is the latest recevied weather packets stored in our database for station/object KC7WRB. If no packets are shown the sender has not sent any weather packets the latest 10 day(s).

<< 8 9 10 11 12 13 14 >>
Time Temp. Humidity Pressure Rain* Wind** Luminosity Snow
1788539990 21.67° C 30% 1013.1 hPa 0 mm - 538 W/m² -
1788539689 21.67° C 30% 1013.1 hPa 0 mm - 522 W/m² -
1788539383 21.11° C 31% 1012.9 hPa 0 mm - 202 W/m² -
1788539079 21.11° C 31% 1013.1 hPa 0 mm - 122 W/m² -
1788538774 21.11° C 31% 1013 hPa 0 mm - 470 W/m² -
1788538469 21.67° C 31% 1013.3 hPa 0 mm - 458 W/m² -
1788538166 21.67° C 30% 1013.2 hPa 0 mm - 439 W/m² -
1788537866 21.11° C 31% 1013.1 hPa 0 mm - 422 W/m² -
1788537561 21.11° C 31% 1013.1 hPa 0 mm - 420 W/m² -
1788537255 21.11° C 30% 1013.3 hPa 0 mm - 405 W/m² -
1788536954 21.11° C 31% 1013.3 hPa 0 mm - 376 W/m² -
1788536649 21.11° C 31% 1013.2 hPa 0 mm - 360 W/m² -
1788536344 21.11° C 31% 1013.1 hPa 0 mm - 348 W/m² -
1788536040 20.56° C 32% 1013.2 hPa 0 mm - 349 W/m² -
1788535736 20.56° C 33% 1013.3 hPa 0 mm - 326 W/m² -
1788535436 20° C 33% 1013.5 hPa 0 mm - 325 W/m² -
1788535136 20° C 33% 1013.5 hPa 0 mm - 288 W/m² -
1788534836 20° C 33% 1013.2 hPa 0 mm - 286 W/m² -
1788534532 20° C 34% 1013.4 hPa 0 mm - 251 W/m² -
1788534226 18.33° C 36% 1013.5 hPa 0 mm - 215 W/m² -
1788533924 17.78° C 39% 1013.4 hPa 0 mm - 101 W/m² -
1788533621 17.78° C 40% 1013.4 hPa 0 mm - 112 W/m² -
1788533316 17.22° C 40% 1013.5 hPa 0 mm - 102 W/m² -
1788533012 17.22° C 40% 1013.3 hPa 0 mm - 84 W/m² -
1788532707 17.22° C 40% 1013.3 hPa 0 mm - 84 W/m² -

* Rain latest hour (hover to see other rain measurements)
** Current wind speed in m/s (hover to see current wind gust speed)